owner,sensor,date,latitude,longitude,vertical_datum,sea_water_temperature,qcFlag 
TABS,ioos:station:wmo:42051:1,2014-03-01T00:00:00Z,29.6350,-93.6417,-2.0,13.92,11111222 
TABS,ioos:station:wmo:42051:1,2014-03-01T00:30:00Z,29.6350,-93.6417,-2.0,13.94,11111222 
TABS,ioos:station:wmo:42051:1,2014-03-01T01:00:00Z,29.6350,-93.6417,-2.0,13.96,11111222 
TABS,ioos:station:wmo:42051:1,2014-03-01T01:30:00Z,29.6350,-93.6417,-2.0,13.96,11111222 
TABS,ioos:station:wmo:42051:1,2014-03-01T02:00:00Z,29.6350,-93.6417,-2.0,13.94,11111222 
TABS,ioos:station:wmo:42051:1,2014-03-01T02:30:00Z,29.6350,-93.6417,-2.0,13.95,11111222 
TABS,ioos:station:wmo:42051:1,2014-03-01T03:00:00Z,29.6350,-93.6417,-2.0,13.94,11111222 
TABS,ioos:station:wmo:42051:1,2014-03-01T03:30:00Z,29.6350,-93.6417,-2.0,13.98,11111222 
TABS,ioos:station:wmo:42051:1,2014-03-01T04:00:00Z,29.6350,-93.6417,-2.0,14.0,11111222 
TABS,ioos:station:wmo:42051:1,2014-03-01T04:30:00Z,29.6350,-93.6417,-2.0,14.01,11111222 
TABS,ioos:station:wmo:42051:1,2014-03-01T05:00:00Z,29.6350,-93.6417,-2.0,14.03,11111222 
TABS,ioos:station:wmo:42051:1,2014-03-01T05:30:00Z,29.6350,-93.6417,-2.0,14.03,11111222 
TABS,ioos:station:wmo:42051:1,2014-03-01T06:00:00Z,29.6350,-93.6417,-2.0,14.05,11111222 
TABS,ioos:station:wmo:42051:1,2014-03-01T06:30:00Z,29.6350,-93.6417,-2.0,14.05,11111222 
TABS,ioos:station:wmo:42051:1,2014-03-01T07:00:00Z,29.6350,-93.6417,-2.0,14.06,11111222 
TABS,ioos:station:wmo:42051:1,2014-03-01T07:30:00Z,29.6350,-93.6417,-2.0,14.1,11111222 
TABS,ioos:station:wmo:42051:1,2014-03-01T08:00:00Z,29.6350,-93.6417,-2.0,14.12,11111222 
TABS,ioos:station:wmo:42051:1,2014-03-01T08:30:00Z,29.6350,-93.6417,-2.0,14.14,11111222 
TABS,ioos:station:wmo:42051:1,2014-03-01T09:00:00Z,29.6350,-93.6417,-2.0,14.19,11111222 
TABS,ioos:station:wmo:42051:1,2014-03-01T09:30:00Z,29.6350,-93.6417,-2.0,14.2,11111222 
TABS,ioos:station:wmo:42051:1,2014-03-01T10:00:00Z,29.6350,-93.6417,-2.0,14.19,11111222 
TABS,ioos:station:wmo:42051:1,2014-03-01T10:30:00Z,29.6350,-93.6417,-2.0,14.15,11111222 
TABS,ioos:station:wmo:42051:1,2014-03-01T11:00:00Z,29.6350,-93.6417,-2.0,14.14,11111222 
TABS,ioos:station:wmo:42051:1,2014-03-01T11:30:00Z,29.6350,-93.6417,-2.0,14.12,11111222 
TABS,ioos:station:wmo:42051:1,2014-03-01T12:00:00Z,29.6350,-93.6417,-2.0,14.14,11111222 
TABS,ioos:station:wmo:42051:1,2014-03-01T12:30:00Z,29.6350,-93.6417,-2.0,14.15,11111222 
TABS,ioos:station:wmo:42051:1,2014-03-01T13:00:00Z,29.6350,-93.6417,-2.0,14.15,11111222 
TABS,ioos:station:wmo:42051:1,2014-03-01T13:30:00Z,29.6350,-93.6417,-2.0,14.16,11111222 
TABS,ioos:station:wmo:42051:1,2014-03-01T14:00:00Z,29.6350,-93.6417,-2.0,14.18,11111222 
TABS,ioos:station:wmo:42051:1,2014-03-01T14:30:00Z,29.6350,-93.6417,-2.0,14.2,11111222 
TABS,ioos:station:wmo:42051:1,2014-03-01T15:00:00Z,29.6350,-93.6417,-2.0,14.25,11111222 
TABS,ioos:station:wmo:42051:1,2014-03-01T15:30:00Z,29.6350,-93.6417,-2.0,14.3,11111222 
TABS,ioos:station:wmo:42051:1,2014-03-01T16:00:00Z,29.6350,-93.6417,-2.0,14.38,11111222 
TABS,ioos:station:wmo:42051:1,2014-03-01T16:30:00Z,29.6350,-93.6417,-2.0,14.45,11111222 
TABS,ioos:station:wmo:42051:1,2014-03-01T17:00:00Z,29.6350,-93.6417,-2.0,14.49,11111222 
TABS,ioos:station:wmo:42051:1,2014-03-01T17:30:00Z,29.6350,-93.6417,-2.0,14.54,11111222 
TABS,ioos:station:wmo:42051:1,2014-03-01T18:00:00Z,29.6350,-93.6417,-2.0,14.58,11111222 
TABS,ioos:station:wmo:42051:1,2014-03-01T18:30:00Z,29.6350,-93.6417,-2.0,14.71,11111222 
TABS,ioos:station:wmo:42051:1,2014-03-01T19:00:00Z,29.6350,-93.6417,-2.0,14.84,11111222 
TABS,ioos:station:wmo:42051:1,2014-03-01T19:30:00Z,29.6350,-93.6417,-2.0,14.88,11111222 
TABS,ioos:station:wmo:42051:1,2014-03-01T20:00:00Z,29.6350,-93.6417,-2.0,14.99,11111222 
TABS,ioos:station:wmo:42051:1,2014-03-01T20:30:00Z,29.6350,-93.6417,-2.0,14.92,11111222 
TABS,ioos:station:wmo:42051:1,2014-03-01T21:00:00Z,29.6350,-93.6417,-2.0,14.98,11111222 
TABS,ioos:station:wmo:42051:1,2014-03-01T21:30:00Z,29.6350,-93.6417,-2.0,14.84,11111222 
TABS,ioos:station:wmo:42051:1,2014-03-01T22:00:00Z,29.6350,-93.6417,-2.0,14.96,11111222 
TABS,ioos:station:wmo:42051:1,2014-03-01T22:30:00Z,29.6350,-93.6417,-2.0,14.77,11111222 
TABS,ioos:station:wmo:42051:1,2014-03-01T23:00:00Z,29.6350,-93.6417,-2.0,15.04,11111222 
TABS,ioos:station:wmo:42051:1,2014-03-01T23:30:00Z,29.6350,-93.6417,-2.0,15.19,11111222 
TABS,ioos:station:wmo:42051:1,2014-03-02T00:00:00Z,29.6350,-93.6417,-2.0,14.8,11111222 
TABS,ioos:station:wmo:42051:1,2014-03-02T00:30:00Z,29.6350,-93.6417,-2.0,14.88,11111222 
TABS,ioos:station:wmo:42051:1,2014-03-02T01:00:00Z,29.6350,-93.6417,-2.0,14.98,11111222 
TABS,ioos:station:wmo:42051:1,2014-03-02T01:30:00Z,29.6350,-93.6417,-2.0,14.99,11111222 
TABS,ioos:station:wmo:42051:1,2014-03-02T02:00:00Z,29.6350,-93.6417,-2.0,14.89,11111222 
TABS,ioos:station:wmo:42051:1,2014-03-02T02:30:00Z,29.6350,-93.6417,-2.0,14.93,11111222 
TABS,ioos:station:wmo:42051:1,2014-03-02T03:00:00Z,29.6350,-93.6417,-2.0,14.93,11111222 
TABS,ioos:station:wmo:42051:1,2014-03-02T03:30:00Z,29.6350,-93.6417,-2.0,14.83,11111222 
TABS,ioos:station:wmo:42051:1,2014-03-02T04:00:00Z,29.6350,-93.6417,-2.0,14.72,11111222 
TABS,ioos:station:wmo:42051:1,2014-03-02T04:30:00Z,29.6350,-93.6417,-2.0,14.74,11111222 
TABS,ioos:station:wmo:42051:1,2014-03-02T05:00:00Z,29.6350,-93.6417,-2.0,14.74,11111222 
TABS,ioos:station:wmo:42051:1,2014-03-02T05:30:00Z,29.6350,-93.6417,-2.0,14.77,11111222 
TABS,ioos:station:wmo:42051:1,2014-03-02T06:00:00Z,29.6350,-93.6417,-2.0,14.74,11111222 
TABS,ioos:station:wmo:42051:1,2014-03-02T06:30:00Z,29.6350,-93.6417,-2.0,14.77,11111222 
TABS,ioos:station:wmo:42051:1,2014-03-02T07:00:00Z,29.6350,-93.6417,-2.0,14.77,11111222 
TABS,ioos:station:wmo:42051:1,2014-03-02T07:30:00Z,29.6350,-93.6417,-2.0,14.73,11111222 
TABS,ioos:station:wmo:42051:1,2014-03-02T08:00:00Z,29.6350,-93.6417,-2.0,14.76,11111222 
TABS,ioos:station:wmo:42051:1,2014-03-02T08:30:00Z,29.6350,-93.6417,-2.0,14.74,11111222 
TABS,ioos:station:wmo:42051:1,2014-03-02T09:00:00Z,29.6350,-93.6417,-2.0,14.81,11111222 
TABS,ioos:station:wmo:42051:1,2014-03-02T09:30:00Z,29.6350,-93.6417,-2.0,14.88,11111222 
TABS,ioos:station:wmo:42051:1,2014-03-02T10:00:00Z,29.6350,-93.6417,-2.0,14.9,11111222 
TABS,ioos:station:wmo:42051:1,2014-03-02T10:30:00Z,29.6350,-93.6417,-2.0,14.92,11111222 
TABS,ioos:station:wmo:42051:1,2014-03-02T11:00:00Z,29.6350,-93.6417,-2.0,14.94,11111222 
TABS,ioos:station:wmo:42051:1,2014-03-02T11:30:00Z,29.6350,-93.6417,-2.0,14.97,11111222 
TABS,ioos:station:wmo:42051:1,2014-03-02T12:00:00Z,29.6350,-93.6417,-2.0,15.03,11111222 
TABS,ioos:station:wmo:42051:1,2014-03-02T12:30:00Z,29.6350,-93.6417,-2.0,14.96,11111222 
TABS,ioos:station:wmo:42051:1,2014-03-02T13:00:00Z,29.6350,-93.6417,-2.0,14.9,11111222 
TABS,ioos:station:wmo:42051:1,2014-03-02T13:30:00Z,29.6350,-93.6417,-2.0,14.88,11111222 
TABS,ioos:station:wmo:42051:1,2014-03-02T14:00:00Z,29.6350,-93.6417,-2.0,15.02,11111222 
TABS,ioos:station:wmo:42051:1,2014-03-02T14:30:00Z,29.6350,-93.6417,-2.0,15.01,11111222 
TABS,ioos:station:wmo:42051:1,2014-03-02T15:00:00Z,29.6350,-93.6417,-2.0,14.88,11111222 
TABS,ioos:station:wmo:42051:1,2014-03-02T15:30:00Z,29.6350,-93.6417,-2.0,14.85,11111222 
TABS,ioos:station:wmo:42051:1,2014-03-02T16:00:00Z,29.6350,-93.6417,-2.0,14.91,11111222 
TABS,ioos:station:wmo:42051:1,2014-03-02T16:30:00Z,29.6350,-93.6417,-2.0,15.05,11111222 
TABS,ioos:station:wmo:42051:1,2014-03-02T17:00:00Z,29.6350,-93.6417,-2.0,15.18,11111222 
TABS,ioos:station:wmo:42051:1,2014-03-02T17:30:00Z,29.6350,-93.6417,-2.0,15.31,11111222 
TABS,ioos:station:wmo:42051:1,2014-03-02T18:00:00Z,29.6350,-93.6417,-2.0,15.36,11111222 
TABS,ioos:station:wmo:42051:1,2014-03-02T18:30:00Z,29.6350,-93.6417,-2.0,15.41,11111222 
TABS,ioos:station:wmo:42051:1,2014-03-02T19:00:00Z,29.6350,-93.6417,-2.0,15.49,11111222 
TABS,ioos:station:wmo:42051:1,2014-03-02T19:30:00Z,29.6350,-93.6417,-2.0,15.46,11111222 
TABS,ioos:station:wmo:42051:1,2014-03-02T20:00:00Z,29.6350,-93.6417,-2.0,15.59,11111222 
TABS,ioos:station:wmo:42051:1,2014-03-02T20:30:00Z,29.6350,-93.6417,-2.0,16.02,11111222 
TABS,ioos:station:wmo:42051:1,2014-03-02T21:00:00Z,29.6350,-93.6417,-2.0,15.53,11111222 
TABS,ioos:station:wmo:42051:1,2014-03-02T21:30:00Z,29.6350,-93.6417,-2.0,15.17,11111222 
TABS,ioos:station:wmo:42051:1,2014-03-02T22:00:00Z,29.6350,-93.6417,-2.0,15.59,11111222 
TABS,ioos:station:wmo:42051:1,2014-03-02T22:30:00Z,29.6350,-93.6417,-2.0,15.66,11111222 
TABS,ioos:station:wmo:42051:1,2014-03-02T23:00:00Z,29.6350,-93.6417,-2.0,15.65,11111222 
TABS,ioos:station:wmo:42051:1,2014-03-02T23:30:00Z,29.6350,-93.6417,-2.0,15.48,11111222 
TABS,ioos:station:wmo:42051:1,2014-03-03T00:00:00Z,29.6350,-93.6417,-2.0,15.48,11111222 
TABS,ioos:station:wmo:42051:1,2014-03-03T00:30:00Z,29.6350,-93.6417,-2.0,15.44,11111222 
TABS,ioos:station:wmo:42051:1,2014-03-03T01:00:00Z,29.6350,-93.6417,-2.0,15.34,11111222 
TABS,ioos:station:wmo:42051:1,2014-03-03T01:30:00Z,29.6350,-93.6417,-2.0,15.17,11111222 
TABS,ioos:station:wmo:42051:1,2014-03-03T02:00:00Z,29.6350,-93.6417,-2.0,15.05,11111222 
TABS,ioos:station:wmo:42051:1,2014-03-03T02:30:00Z,29.6350,-93.6417,-2.0,14.97,11111222 
TABS,ioos:station:wmo:42051:1,2014-03-03T03:00:00Z,29.6350,-93.6417,-2.0,14.91,11111222 
TABS,ioos:station:wmo:42051:1,2014-03-03T03:30:00Z,29.6350,-93.6417,-2.0,14.9,11111222 
TABS,ioos:station:wmo:42051:1,2014-03-03T04:00:00Z,29.6350,-93.6417,-2.0,14.88,11111222 
TABS,ioos:station:wmo:42051:1,2014-03-03T04:30:00Z,29.6350,-93.6417,-2.0,14.86,11111222 
TABS,ioos:station:wmo:42051:1,2014-03-03T05:00:00Z,29.6350,-93.6417,-2.0,14.8,11111222 
TABS,ioos:station:wmo:42051:1,2014-03-03T05:30:00Z,29.6350,-93.6417,-2.0,14.75,11111222 
TABS,ioos:station:wmo:42051:1,2014-03-03T06:00:00Z,29.6350,-93.6417,-2.0,14.68,11111222 
TABS,ioos:station:wmo:42051:1,2014-03-03T06:30:00Z,29.6350,-93.6417,-2.0,14.62,11111222 
TABS,ioos:station:wmo:42051:1,2014-03-03T07:00:00Z,29.6350,-93.6417,-2.0,14.61,11111222 
TABS,ioos:station:wmo:42051:1,2014-03-03T07:30:00Z,29.6350,-93.6417,-2.0,14.57,11111222 
TABS,ioos:station:wmo:42051:1,2014-03-03T08:00:00Z,29.6350,-93.6417,-2.0,14.57,11111222 
TABS,ioos:station:wmo:42051:1,2014-03-03T08:30:00Z,29.6350,-93.6417,-2.0,14.71,11111222 
TABS,ioos:station:wmo:42051:1,2014-03-03T09:00:00Z,29.6350,-93.6417,-2.0,14.77,11111222 
TABS,ioos:station:wmo:42051:1,2014-03-03T09:30:00Z,29.6350,-93.6417,-2.0,14.82,11111222 
TABS,ioos:station:wmo:42051:1,2014-03-03T10:00:00Z,29.6350,-93.6417,-2.0,14.8,11111222 
TABS,ioos:station:wmo:42051:1,2014-03-03T10:30:00Z,29.6350,-93.6417,-2.0,14.77,11111222 
TABS,ioos:station:wmo:42051:1,2014-03-03T11:00:00Z,29.6350,-93.6417,-2.0,14.72,11111222 
TABS,ioos:station:wmo:42051:1,2014-03-03T11:30:00Z,29.6350,-93.6417,-2.0,14.67,11111222 
TABS,ioos:station:wmo:42051:1,2014-03-03T12:00:00Z,29.6350,-93.6417,-2.0,14.52,11111222 
TABS,ioos:station:wmo:42051:1,2014-03-03T12:30:00Z,29.6350,-93.6417,-2.0,14.41,11111222 
TABS,ioos:station:wmo:42051:1,2014-03-03T13:00:00Z,29.6350,-93.6417,-2.0,14.3,11111222 
TABS,ioos:station:wmo:42051:1,2014-03-03T13:30:00Z,29.6350,-93.6417,-2.0,14.25,11111222 
TABS,ioos:station:wmo:42051:1,2014-03-03T14:00:00Z,29.6350,-93.6417,-2.0,14.26,11111222 
TABS,ioos:station:wmo:42051:1,2014-03-03T14:30:00Z,29.6350,-93.6417,-2.0,14.23,11111222 
TABS,ioos:station:wmo:42051:1,2014-03-03T15:00:00Z,29.6350,-93.6417,-2.0,14.2,11111222 
TABS,ioos:station:wmo:42051:1,2014-03-03T15:30:00Z,29.6350,-93.6417,-2.0,14.18,11111222 
TABS,ioos:station:wmo:42051:1,2014-03-03T16:00:00Z,29.6350,-93.6417,-2.0,14.16,11111222 
TABS,ioos:station:wmo:42051:1,2014-03-03T16:30:00Z,29.6350,-93.6417,-2.0,14.16,11111222 
TABS,ioos:station:wmo:42051:1,2014-03-03T17:00:00Z,29.6350,-93.6417,-2.0,14.14,11111222 
TABS,ioos:station:wmo:42051:1,2014-03-03T17:30:00Z,29.6350,-93.6417,-2.0,14.11,11111222 
TABS,ioos:station:wmo:42051:1,2014-03-03T18:00:00Z,29.6350,-93.6417,-2.0,14.06,11111222 
TABS,ioos:station:wmo:42051:1,2014-03-03T18:30:00Z,29.6350,-93.6417,-2.0,14.03,11111222 
TABS,ioos:station:wmo:42051:1,2014-03-03T19:00:00Z,29.6350,-93.6417,-2.0,14.04,11111222 
TABS,ioos:station:wmo:42051:1,2014-03-03T19:30:00Z,29.6350,-93.6417,-2.0,14.05,11111222 
TABS,ioos:station:wmo:42051:1,2014-03-03T20:00:00Z,29.6350,-93.6417,-2.0,14.08,11111222 
TABS,ioos:station:wmo:42051:1,2014-03-03T20:30:00Z,29.6350,-93.6417,-2.0,14.11,11111222 
TABS,ioos:station:wmo:42051:1,2014-03-03T21:00:00Z,29.6350,-93.6417,-2.0,14.13,11111222 
TABS,ioos:station:wmo:42051:1,2014-03-03T21:30:00Z,29.6350,-93.6417,-2.0,14.13,11111222 
TABS,ioos:station:wmo:42051:1,2014-03-03T22:00:00Z,29.6350,-93.6417,-2.0,14.08,11111222 
TABS,ioos:station:wmo:42051:1,2014-03-03T22:30:00Z,29.6350,-93.6417,-2.0,14.1,11111222 
TABS,ioos:station:wmo:42051:1,2014-03-03T23:00:00Z,29.6350,-93.6417,-2.0,14.11,11111222 
TABS,ioos:station:wmo:42051:1,2014-03-03T23:30:00Z,29.6350,-93.6417,-2.0,14.1,11111222 
TABS,ioos:station:wmo:42051:1,2014-03-04T00:00:00Z,29.6350,-93.6417,-2.0,14.08,11111222 
TABS,ioos:station:wmo:42051:1,2014-03-04T00:30:00Z,29.6350,-93.6417,-2.0,14.08,11111222 
TABS,ioos:station:wmo:42051:1,2014-03-04T01:00:00Z,29.6350,-93.6417,-2.0,14.05,11111222 
TABS,ioos:station:wmo:42051:1,2014-03-04T01:30:00Z,29.6350,-93.6417,-2.0,14.01,11111222 
TABS,ioos:station:wmo:42051:1,2014-03-04T02:00:00Z,29.6350,-93.6417,-2.0,13.98,11111222 
TABS,ioos:station:wmo:42051:1,2014-03-04T02:30:00Z,29.6350,-93.6417,-2.0,13.96,11111222 
TABS,ioos:station:wmo:42051:1,2014-03-04T03:00:00Z,29.6350,-93.6417,-2.0,13.95,11111222 
TABS,ioos:station:wmo:42051:1,2014-03-04T03:30:00Z,29.6350,-93.6417,-2.0,13.95,11111222 
TABS,ioos:station:wmo:42051:1,2014-03-04T04:00:00Z,29.6350,-93.6417,-2.0,13.97,11111222 
TABS,ioos:station:wmo:42051:1,2014-03-04T04:30:00Z,29.6350,-93.6417,-2.0,13.98,11111222 
TABS,ioos:station:wmo:42051:1,2014-03-04T05:00:00Z,29.6350,-93.6417,-2.0,13.98,11111222 
TABS,ioos:station:wmo:42051:1,2014-03-04T05:30:00Z,29.6350,-93.6417,-2.0,13.97,11111222 
TABS,ioos:station:wmo:42051:1,2014-03-04T06:00:00Z,29.6350,-93.6417,-2.0,13.95,11111222 
TABS,ioos:station:wmo:42051:1,2014-03-04T06:30:00Z,29.6350,-93.6417,-2.0,13.92,11111222 
TABS,ioos:station:wmo:42051:1,2014-03-04T07:00:00Z,29.6350,-93.6417,-2.0,13.89,11111222 
TABS,ioos:station:wmo:42051:1,2014-03-04T07:30:00Z,29.6350,-93.6417,-2.0,13.86,11111222 
TABS,ioos:station:wmo:42051:1,2014-03-04T08:00:00Z,29.6350,-93.6417,-2.0,13.82,11111222 
TABS,ioos:station:wmo:42051:1,2014-03-04T08:30:00Z,29.6350,-93.6417,-2.0,13.79,11111222 
TABS,ioos:station:wmo:42051:1,2014-03-04T09:00:00Z,29.6350,-93.6417,-2.0,13.72,11111222 
TABS,ioos:station:wmo:42051:1,2014-03-04T09:30:00Z,29.6350,-93.6417,-2.0,13.66,11111222 
TABS,ioos:station:wmo:42051:1,2014-03-04T10:00:00Z,29.6350,-93.6417,-2.0,13.67,11111222 
TABS,ioos:station:wmo:42051:1,2014-03-04T10:30:00Z,29.6350,-93.6417,-2.0,13.56,11111222 
TABS,ioos:station:wmo:42051:1,2014-03-04T11:00:00Z,29.6350,-93.6417,-2.0,13.62,11111222 
TABS,ioos:station:wmo:42051:1,2014-03-04T11:30:00Z,29.6350,-93.6417,-2.0,13.67,11111222 
TABS,ioos:station:wmo:42051:1,2014-03-04T12:00:00Z,29.6350,-93.6417,-2.0,13.67,11111222 
TABS,ioos:station:wmo:42051:1,2014-03-04T12:30:00Z,29.6350,-93.6417,-2.0,13.42,11111222 
TABS,ioos:station:wmo:42051:1,2014-03-04T13:00:00Z,29.6350,-93.6417,-2.0,13.45,11111222 
TABS,ioos:station:wmo:42051:1,2014-03-04T13:30:00Z,29.6350,-93.6417,-2.0,13.5,11111222 
TABS,ioos:station:wmo:42051:1,2014-03-04T14:00:00Z,29.6350,-93.6417,-2.0,13.51,11111222 
TABS,ioos:station:wmo:42051:1,2014-03-04T14:30:00Z,29.6350,-93.6417,-2.0,13.54,11111222 
TABS,ioos:station:wmo:42051:1,2014-03-04T15:00:00Z,29.6350,-93.6417,-2.0,13.54,11111222 
TABS,ioos:station:wmo:42051:1,2014-03-04T15:30:00Z,29.6350,-93.6417,-2.0,13.51,11111222 
TABS,ioos:station:wmo:42051:1,2014-03-04T16:00:00Z,29.6350,-93.6417,-2.0,13.36,11111222 
TABS,ioos:station:wmo:42051:1,2014-03-04T16:30:00Z,29.6350,-93.6417,-2.0,13.4,11111222 
TABS,ioos:station:wmo:42051:1,2014-03-04T17:00:00Z,29.6350,-93.6417,-2.0,13.46,11111222 
TABS,ioos:station:wmo:42051:1,2014-03-04T17:30:00Z,29.6350,-93.6417,-2.0,13.46,11111222 
TABS,ioos:station:wmo:42051:1,2014-03-04T18:00:00Z,29.6350,-93.6417,-2.0,13.34,11111222 
TABS,ioos:station:wmo:42051:1,2014-03-04T18:30:00Z,29.6350,-93.6417,-2.0,13.39,11111222 
TABS,ioos:station:wmo:42051:1,2014-03-04T19:00:00Z,29.6350,-93.6417,-2.0,13.42,11111222 
TABS,ioos:station:wmo:42051:1,2014-03-04T19:30:00Z,29.6350,-93.6417,-2.0,13.34,11111222 
TABS,ioos:station:wmo:42051:1,2014-03-04T20:00:00Z,29.6350,-93.6417,-2.0,13.35,11111222 
TABS,ioos:station:wmo:42051:1,2014-03-04T20:30:00Z,29.6350,-93.6417,-2.0,13.41,11111222 
TABS,ioos:station:wmo:42051:1,2014-03-04T21:00:00Z,29.6350,-93.6417,-2.0,13.47,11111222 
TABS,ioos:station:wmo:42051:1,2014-03-04T21:30:00Z,29.6350,-93.6417,-2.0,13.28,11111222 
TABS,ioos:station:wmo:42051:1,2014-03-04T22:00:00Z,29.6350,-93.6417,-2.0,13.34,11111222 
TABS,ioos:station:wmo:42051:1,2014-03-04T22:30:00Z,29.6350,-93.6417,-2.0,13.4,11111222 
TABS,ioos:station:wmo:42051:1,2014-03-04T23:00:00Z,29.6350,-93.6417,-2.0,13.46,11111222 
TABS,ioos:station:wmo:42051:1,2014-03-04T23:30:00Z,29.6350,-93.6417,-2.0,13.36,11111222 
TABS,ioos:station:wmo:42051:1,2014-03-05T00:00:00Z,29.6350,-93.6417,-2.0,13.38,11111222 
TABS,ioos:station:wmo:42051:1,2014-03-05T00:30:00Z,29.6350,-93.6417,-2.0,13.13,11111222 
TABS,ioos:station:wmo:42051:1,2014-03-05T01:00:00Z,29.6350,-93.6417,-2.0,13.23,11111222 
TABS,ioos:station:wmo:42051:1,2014-03-05T01:30:00Z,29.6350,-93.6417,-2.0,13.3,11111222 
TABS,ioos:station:wmo:42051:1,2014-03-05T02:00:00Z,29.6350,-93.6417,-2.0,13.35,11111222 
TABS,ioos:station:wmo:42051:1,2014-03-05T02:30:00Z,29.6350,-93.6417,-2.0,13.41,11111222 
TABS,ioos:station:wmo:42051:1,2014-03-05T03:00:00Z,29.6350,-93.6417,-2.0,13.47,11111222 
TABS,ioos:station:wmo:42051:1,2014-03-05T03:30:00Z,29.6350,-93.6417,-2.0,13.32,11111222 
TABS,ioos:station:wmo:42051:1,2014-03-05T04:00:00Z,29.6350,-93.6417,-2.0,13.22,11111222 
TABS,ioos:station:wmo:42051:1,2014-03-05T04:30:00Z,29.6350,-93.6417,-2.0,13.32,11111222 
TABS,ioos:station:wmo:42051:1,2014-03-05T05:00:00Z,29.6350,-93.6417,-2.0,13.4,11111222 
TABS,ioos:station:wmo:42051:1,2014-03-05T05:30:00Z,29.6350,-93.6417,-2.0,13.39,11111222 
TABS,ioos:station:wmo:42051:1,2014-03-05T06:00:00Z,29.6350,-93.6417,-2.0,13.41,11111222 
TABS,ioos:station:wmo:42051:1,2014-03-05T06:30:00Z,29.6350,-93.6417,-2.0,13.52,11111222 
TABS,ioos:station:wmo:42051:1,2014-03-05T07:00:00Z,29.6350,-93.6417,-2.0,13.54,11111222 
TABS,ioos:station:wmo:42051:1,2014-03-05T07:30:00Z,29.6350,-93.6417,-2.0,13.48,11111222 
TABS,ioos:station:wmo:42051:1,2014-03-05T08:00:00Z,29.6350,-93.6417,-2.0,13.44,11111222 
TABS,ioos:station:wmo:42051:1,2014-03-05T08:30:00Z,29.6350,-93.6417,-2.0,13.45,11111222 
TABS,ioos:station:wmo:42051:1,2014-03-05T09:00:00Z,29.6350,-93.6417,-2.0,13.44,11111222 
TABS,ioos:station:wmo:42051:1,2014-03-05T09:30:00Z,29.6350,-93.6417,-2.0,13.44,11111222 
TABS,ioos:station:wmo:42051:1,2014-03-05T10:00:00Z,29.6350,-93.6417,-2.0,13.42,11111222 
TABS,ioos:station:wmo:42051:1,2014-03-05T10:30:00Z,29.6350,-93.6417,-2.0,13.39,11111222 
TABS,ioos:station:wmo:42051:1,2014-03-05T11:00:00Z,29.6350,-93.6417,-2.0,13.38,11111222 
TABS,ioos:station:wmo:42051:1,2014-03-05T11:30:00Z,29.6350,-93.6417,-2.0,13.38,11111222 
TABS,ioos:station:wmo:42051:1,2014-03-05T12:00:00Z,29.6350,-93.6417,-2.0,13.38,11111222 
TABS,ioos:station:wmo:42051:1,2014-03-05T12:30:00Z,29.6350,-93.6417,-2.0,13.36,11111222 
TABS,ioos:station:wmo:42051:1,2014-03-05T13:00:00Z,29.6350,-93.6417,-2.0,13.3,11111222 
TABS,ioos:station:wmo:42051:1,2014-03-05T13:30:00Z,29.6350,-93.6417,-2.0,13.24,11111222 
TABS,ioos:station:wmo:42051:1,2014-03-05T14:00:00Z,29.6350,-93.6417,-2.0,13.23,11111222 
TABS,ioos:station:wmo:42051:1,2014-03-05T14:30:00Z,29.6350,-93.6417,-2.0,13.24,11111222 
TABS,ioos:station:wmo:42051:1,2014-03-05T15:00:00Z,29.6350,-93.6417,-2.0,13.23,11111222 
TABS,ioos:station:wmo:42051:1,2014-03-05T15:30:00Z,29.6350,-93.6417,-2.0,13.21,11111222 
TABS,ioos:station:wmo:42051:1,2014-03-05T16:00:00Z,29.6350,-93.6417,-2.0,13.22,11111222 
TABS,ioos:station:wmo:42051:1,2014-03-05T16:30:00Z,29.6350,-93.6417,-2.0,13.24,11111222 
TABS,ioos:station:wmo:42051:1,2014-03-05T17:00:00Z,29.6350,-93.6417,-2.0,13.25,11111222 
TABS,ioos:station:wmo:42051:1,2014-03-05T17:30:00Z,29.6350,-93.6417,-2.0,13.28,11111222 
TABS,ioos:station:wmo:42051:1,2014-03-05T18:00:00Z,29.6350,-93.6417,-2.0,13.28,11111222 
TABS,ioos:station:wmo:42051:1,2014-03-05T18:30:00Z,29.6350,-93.6417,-2.0,13.27,11111222 
TABS,ioos:station:wmo:42051:1,2014-03-05T19:00:00Z,29.6350,-93.6417,-2.0,13.24,11111222 
TABS,ioos:station:wmo:42051:1,2014-03-05T19:30:00Z,29.6350,-93.6417,-2.0,13.24,11111222 
TABS,ioos:station:wmo:42051:1,2014-03-05T20:00:00Z,29.6350,-93.6417,-2.0,13.18,11111222 
TABS,ioos:station:wmo:42051:1,2014-03-05T20:30:00Z,29.6350,-93.6417,-2.0,13.18,11111222 
TABS,ioos:station:wmo:42051:1,2014-03-05T21:00:00Z,29.6350,-93.6417,-2.0,13.19,11111222 
TABS,ioos:station:wmo:42051:1,2014-03-05T21:30:00Z,29.6350,-93.6417,-2.0,13.2,11111222 
TABS,ioos:station:wmo:42051:1,2014-03-05T22:00:00Z,29.6350,-93.6417,-2.0,13.2,11111222 
TABS,ioos:station:wmo:42051:1,2014-03-05T22:30:00Z,29.6350,-93.6417,-2.0,13.19,11111222 
TABS,ioos:station:wmo:42051:1,2014-03-05T23:00:00Z,29.6350,-93.6417,-2.0,13.19,11111222 
TABS,ioos:station:wmo:42051:1,2014-03-05T23:30:00Z,29.6350,-93.6417,-2.0,13.18,11111222 
TABS,ioos:station:wmo:42051:1,2014-03-06T00:00:00Z,29.6350,-93.6417,-2.0,13.17,11111222 
TABS,ioos:station:wmo:42051:1,2014-03-06T00:30:00Z,29.6350,-93.6417,-2.0,13.16,11111222 
TABS,ioos:station:wmo:42051:1,2014-03-06T01:00:00Z,29.6350,-93.6417,-2.0,13.17,11111222 
TABS,ioos:station:wmo:42051:1,2014-03-06T01:30:00Z,29.6350,-93.6417,-2.0,13.16,11111222 
TABS,ioos:station:wmo:42051:1,2014-03-06T02:00:00Z,29.6350,-93.6417,-2.0,13.15,11111222 
TABS,ioos:station:wmo:42051:1,2014-03-06T02:30:00Z,29.6350,-93.6417,-2.0,13.13,11111222 
TABS,ioos:station:wmo:42051:1,2014-03-06T03:00:00Z,29.6350,-93.6417,-2.0,13.1,11111222 
TABS,ioos:station:wmo:42051:1,2014-03-06T03:30:00Z,29.6350,-93.6417,-2.0,13.08,11111222 
TABS,ioos:station:wmo:42051:1,2014-03-06T04:00:00Z,29.6350,-93.6417,-2.0,13.09,11111222 
TABS,ioos:station:wmo:42051:1,2014-03-06T04:30:00Z,29.6350,-93.6417,-2.0,13.04,11111222 
TABS,ioos:station:wmo:42051:1,2014-03-06T05:00:00Z,29.6350,-93.6417,-2.0,13.06,11111222 
TABS,ioos:station:wmo:42051:1,2014-03-06T05:30:00Z,29.6350,-93.6417,-2.0,13.07,11111222 
TABS,ioos:station:wmo:42051:1,2014-03-06T06:00:00Z,29.6350,-93.6417,-2.0,13.08,11111222 
TABS,ioos:station:wmo:42051:1,2014-03-06T06:30:00Z,29.6350,-93.6417,-2.0,13.08,11111222 
TABS,ioos:station:wmo:42051:1,2014-03-06T07:00:00Z,29.6350,-93.6417,-2.0,13.08,11111222 
TABS,ioos:station:wmo:42051:1,2014-03-06T07:30:00Z,29.6350,-93.6417,-2.0,13.08,11111222 
TABS,ioos:station:wmo:42051:1,2014-03-06T08:00:00Z,29.6350,-93.6417,-2.0,13.06,11111222 
TABS,ioos:station:wmo:42051:1,2014-03-06T08:30:00Z,29.6350,-93.6417,-2.0,13.05,11111222 
TABS,ioos:station:wmo:42051:1,2014-03-06T09:00:00Z,29.6350,-93.6417,-2.0,13.03,11111222 
TABS,ioos:station:wmo:42051:1,2014-03-06T09:30:00Z,29.6350,-93.6417,-2.0,13.01,11111222 
TABS,ioos:station:wmo:42051:1,2014-03-06T10:00:00Z,29.6350,-93.6417,-2.0,12.99,11111222 
TABS,ioos:station:wmo:42051:1,2014-03-06T10:30:00Z,29.6350,-93.6417,-2.0,12.97,11111222 
TABS,ioos:station:wmo:42051:1,2014-03-06T11:00:00Z,29.6350,-93.6417,-2.0,12.96,11111222 
TABS,ioos:station:wmo:42051:1,2014-03-06T11:30:00Z,29.6350,-93.6417,-2.0,12.96,11111222 
TABS,ioos:station:wmo:42051:1,2014-03-06T12:00:00Z,29.6350,-93.6417,-2.0,12.93,11111222 
TABS,ioos:station:wmo:42051:1,2014-03-06T12:30:00Z,29.6350,-93.6417,-2.0,12.9,11111222 
TABS,ioos:station:wmo:42051:1,2014-03-06T13:00:00Z,29.6350,-93.6417,-2.0,12.89,11111222 
TABS,ioos:station:wmo:42051:1,2014-03-06T13:30:00Z,29.6350,-93.6417,-2.0,12.87,11111222 
TABS,ioos:station:wmo:42051:1,2014-03-06T14:00:00Z,29.6350,-93.6417,-2.0,12.87,11111222 